Location: San Vito
(41.8833°N, 12.9833°E)
Time: 06:43:41
(UTC+00:00)

SL-16 R/B - Pass Details

Date: 17 November 2019
Orbit: 842 x 846 km, 71.0° (Epoch: 09 December)

Event Time Altitude Azimuth Distance (km) Brightness Sun altitude
Exits shadow 04:52:25 - 328° (NNW) 2,773 4.5 -12.6°
Reaches altitude 10° 04:53:13 10° 327° (NNW) 2,475 4.2 -12.4°
Maximum altitude 04:58:43 53° 252° (WSW) 1,035 2.4 -11.5°
Drops below altitude 10° 05:04:11 10° 177° (S) 2,458 4.9 -10.5°
Sets 05:06:40 0° 172° (S) 3,389 5.7 -10.0°
